Weather in Kurchenko

Russia / Astrakhan Oblast     46°14′00″N   47°32′06″E
temp.,
°C
wind,
m/s
gust,
m/s
humid.,
%
clouds,
%
prec.,
mm/h
press.,
hPa
HPBL,
m
1 august, sun
sun101:00+25sse346050 0.0 101191
04:00+24sse336392 0.0 101149
07:00+25se336123 0.0 1012128
10:00+29sse34455 0.0 1012611
13:00+31s554111 0.0 1011951
16:00+32sse45385 0.3 1010817
19:00+32s66351 0.0 1010483
22:00+28s57480 0.0 1011120
2 august, mon
mon201:00+26s345427 0.0 101148
04:00+27se225199 0.0 101120
07:00+27ene234313 0.0 101274
10:00+32ese342737 0.0 1012525
13:00+34s5623100 0.0 10121130
16:00+35ssw4522100 0.0 1010833
19:00+34se682577 0.0 1010431
22:00+29se464486 0.0 101188
3 august, tue
tue301:00+26sse465679 0.0 101081
04:00+26se225498 0.0 101011
07:00+28wnw01459 0.0 101212
10:00+32se23273 0.0 1012413
13:00+35ssw34200 0.0 10111122
16:00+36s77180 0.0 10101406
19:00+34s68230 0.0 1010287
22:00+29s57340 0.0 101081
4 august, wed
wed401:00+28ssw44420 0.0 101042
04:00+26ssw23460 0.0 101014
07:00+28s22410 0.0 101140
10:00+32s33280 0.0 1011334
13:00+35sse34200 0.0 1010901
16:00+36sse55205 0.0 10091176
19:00+34s7102618 0.0 1009252
22:00+29s34415 0.0 101149
5 august, thu
thu501:00+27w11425 0.0 101111
04:00+27n584111 0.0 1011132
07:00+27n584964 0.0 1012228
10:00+30n111242100 0.0 1013848
13:00+27nne6751100 0.0 1013194
16:00+31nnw354039 0.0 10131177
19:00+31n66360 0.0 1012919
22:00+28nne454290 0.0 101368